Location: Chevoux
(46.3801°N, 4.9476°E)
Time: 19:44:45
(UTC+00:00)

X-37B - Pass Details

Date: 25 April 2021
Orbit: 386 x 389 km, 45.0° (Epoch: 08 May)

Event Time Altitude Azimuth Distance (km) Brightness Sun altitude
Exits shadow 02:54:24 43° 245° (WSW) 554 0.9 -15.9°
Maximum altitude 02:55:10 60° 190° (S) 449 0.6 -15.8°
Drops below altitude 10° 02:58:18 10° 109° (ESE) 1,412 3.8 -15.4°
Sets 03:00:23 0° 106° (ESE) 2,265 5.0 -15.1°
